TimeEDT,TemperatureF,Dew PointF,Humidity,Sea Level PressureIn,VisibilityMPH,Wind Direction,Wind SpeedMPH,Gust SpeedMPH,PrecipitationIn,Events,Conditions,WindDirDegrees,DateUTC
12:46 AM,53.6,51.8,94,30.14,10.0,South,10.4,-,0.01,,Overcast,170,2013-05-20 04:46:00
12:51 AM,53.1,52.0,96,30.15,10.0,South,8.1,-,0.01,,Overcast,170,2013-05-20 04:51:00
1:08 AM,53.6,51.8,94,30.14,10.0,South,13.8,19.6,N/A,,Overcast,190,2013-05-20 05:08:00
1:51 AM,53.1,52.0,96,30.12,10.0,South,12.7,-,N/A,,Overcast,180,2013-05-20 05:51:00
2:51 AM,54.0,52.0,93,30.09,10.0,SSE,11.5,-,0.00,,Overcast,160,2013-05-20 06:51:00
3:06 AM,53.6,51.8,94,30.08,10.0,South,9.2,-,N/A,,Overcast,170,2013-05-20 07:06:00
3:31 AM,53.6,51.8,94,30.08,10.0,SSE,10.4,-,N/A,,Overcast,160,2013-05-20 07:31:00
3:51 AM,54.0,52.0,93,30.06,10.0,South,12.7,-,N/A,,Overcast,170,2013-05-20 07:51:00
4:51 AM,54.0,53.1,97,30.05,10.0,South,11.5,-,N/A,,Overcast,170,2013-05-20 08:51:00
5:51 AM,55.0,53.1,93,30.06,10.0,South,6.9,-,N/A,,Overcast,170,2013-05-20 09:51:00
6:03 AM,55.4,53.6,94,30.05,10.0,SSE,3.5,-,N/A,,Overcast,160,2013-05-20 10:03:00
6:51 AM,55.0,53.1,93,30.06,10.0,South,3.5,-,N/A,,Overcast,190,2013-05-20 10:51:00
7:51 AM,57.0,54.0,89,30.06,10.0,South,3.5,-,N/A,,Overcast,170,2013-05-20 11:51:00
8:23 AM,57.2,55.4,94,30.06,10.0,South,3.5,-,0.03,Rain,Light Rain,190,2013-05-20 12:23:00
8:51 AM,57.0,55.9,96,30.08,10.0,Calm,Calm,-,0.03,,Overcast,0,2013-05-20 12:51:00
9:51 AM,57.9,57.0,97,30.09,10.0,Calm,Calm,-,N/A,,Overcast,0,2013-05-20 13:51:00
10:51 AM,59.0,57.0,93,30.07,10.0,Calm,Calm,-,N/A,,Overcast,0,2013-05-20 14:51:00
11:51 AM,60.1,57.9,93,30.06,10.0,NE,3.5,-,N/A,,Overcast,40,2013-05-20 15:51:00
12:51 PM,62.1,57.9,86,30.05,10.0,ENE,3.5,-,N/A,,Overcast,60,2013-05-20 16:51:00
1:51 PM,62.6,57.2,82,30.04,10.0,NNE,6.9,-,N/A,,Overcast,30,2013-05-20 17:51:00
2:51 PM,63.0,57.9,84,30.04,10.0,East,4.6,-,N/A,,Overcast,100,2013-05-20 18:51:00
3:51 PM,62.1,59.0,90,30.05,9.0,Calm,Calm,-,N/A,,Overcast,0,2013-05-20 19:51:00
4:30 PM,64.4,59.0,83,30.04,10.0,NNW,6.9,-,N/A,,Mostly Cloudy,330,2013-05-20 20:30:00
4:51 PM,64.4,59.0,83,30.04,10.0,NNW,5.8,-,N/A,,Mostly Cloudy,330,2013-05-20 20:51:00
6:51 PM,64.0,59.0,84,30.05,10.0,Calm,Calm,-,N/A,,Mostly Cloudy,0,2013-05-20 22:51:00
7:51 PM,62.1,59.0,90,30.04,9.0,Calm,Calm,-,N/A,,Partly Cloudy,0,2013-05-20 23:51:00
8:51 PM,57.0,55.9,96,30.04,6.0,Calm,Calm,-,N/A,,Clear,0,2013-05-21 00:51:00
9:51 PM,55.0,55.0,100,30.05,4.0,Calm,Calm,-,N/A,,Clear,0,2013-05-21 01:51:00
10:16 PM,55.4,53.6,94,30.04,5.0,Calm,Calm,-,N/A,,Scattered Clouds,0,2013-05-21 02:16:00
10:21 PM,53.6,53.6,100,30.04,2.5,South,3.5,-,N/A,,Mostly Cloudy,190,2013-05-21 02:21:00
10:24 PM,53.6,53.6,100,30.04,1.2,Calm,Calm,-,N/A,,Mostly Cloudy,0,2013-05-21 02:24:00
10:29 PM,53.6,53.6,100,30.04,0.8,Calm,Calm,-,N/A,,Mist,0,2013-05-21 02:29:00
10:51 PM,53.1,53.1,100,30.05,0.2,Calm,Calm,-,N/A,Fog,Fog,0,2013-05-21 02:51:00
11:51 PM,55.9,55.9,100,30.06,0.2,NNE,3.5,-,N/A,Fog,Fog,30,2013-05-21 03:51:00